星链-4642 (STARLINK-4642 )

导读 | 豆包AI

STARLINK-4642是美国SpaceX公司星链计划中的一颗卫星,于2022年9月5日发射升空。作为星链星座组网的一员,它主要用于为全球提供低延迟、高速率的宽带互联网服务,尤其覆盖偏远地区等网络基础设施薄弱区域,依托近地轨道部署,支撑全球卫星互联网的持续组网与服务拓展。

基本信息
目录编号:
53720
目录名称:
STARLINK-4642
国际标识:
2022-107W
轨道中心:
EARTH
卫星名称:
星链-4642
卫星全名:
星链-4642 (STARLINK-4642 )
卫星状态:
在轨 (已飞行1287 天)
发射日期:
2022-09-05 UTC
国别 :
美国 (US)
星等 :
--
轨道信息
数据来源 国际轨道数据 AOE轨道数据
星历时间 2026-03-15T04:00:59+0800
12小时前
查看轨道信息
2026-03-13T10:00:00+0800
2天前
查看轨道信息
半长轴 6917.874km 6917.926km
偏心率 0.000143 0.0001447
轨道倾角 53.216° 53.215°
近地点辐角 93.007° 83.838°
升交点赤经 230.785° 238.644°
平近点角 267.108° 121.682°
近地点 538.747km 538.787km
远地点 540.727km 540.791km
周期 95.437分钟 95.438分钟
每日圈数 15.088421 15.088253
详细信息
固有亮度:
5
最大亮度:
2.5
卫星平台:
Starlink v1.5
覆盖范围:
全球
运营商:
太空探索技术公司
运营商所在国:
美国
制造商(研发单位):
太空探索技术公司
制造商所在国:
美国
使用方式:
暂无
卫星简介
星链(Starlink)计划是由太空探索技术公司(SpaceX)提出的一个巨型低轨卫星互联网星座项目,计划在2019年至2024年间在太空搭建由约1.2万颗卫星组成的“星链”网络,其中1584颗将部署在地球上空550千米处的近地轨道,并从2020年开始工作。该卫星仍在工作。
2D轨道图
3D轨道图
轨道高度分析图
轨道倾角分析图
轨道综合分析图
查看轨道综合分析图